User: anonymous   Login
Location: Unspecified
(0.0000°N, 0.0000°E)
Time: 12:07:50
(UTC+00:00)
Language:

NOSS 3-1 (A) - Orbit

View from above orbital plane
View from above orbital plane
View from above satellite
View from above satellite

Ground track
Ground track

The orbit data is extracted from the following two-line orbital elements,

1 26905U 01040A   18312.72563262 0.00000000  00000-0  00000-0 0    08
2 26905  63.4170 172.0539 0415000 359.0099   0.9901 13.40764953    08
Epoch (UTC): 08 November 2018 17:24:54
Eccentricity: 0.0415000
inclination: 63.4170°
perigee height: 796 km
apogee height: 1417 km
right ascension of ascending node: 172.0539°
argument of perigee: 359.0099°
revolutions per day: 13.40764953
mean anomaly at epoch: 0.9901°
orbit number at epoch: 0

The dashed part of the orbit path shows where the satellite is in the earth's shadow,  

DLR